Tracking 26935 objects as of 5-Feb-2023
HD Live streaming from Space Station
objects crossing your sky now

MOLNIYA 3-27

Track MOLNIYA 3-27 now!
MOLNIYA 3-27 is classified as:


NORAD ID: 16393
Int'l Code: 1985-117A
Perigee: 1,135.6 km
Apogee: 37,251.0 km
Inclination: 64.3 °
Period: 678.0 minutes
Semi major axis: 25564 km
RCS: 15.138 m2 (large)
Launch date: December 24, 1985
Source: Commonwealth of Independent States (former USSR) (CIS)
Launch site: PLESETSK MISSILE AND SPACE COMPLEX (PKMTR)
Your satellite tracking list
Your tracking list is empty




NASA's NSSDC Master Catalog

Two Line Element Set (TLE):
1 16393U 85117A   23034.86813280 -.00000095  00000-0  00000-0 0  9997
2 16393  64.2630  50.5647 7063646 246.9876  27.8360  2.12398605279095
Source of the keplerian elements: AFSPC